Skip Page Navigation
NASA JPL Caltech
NASA Logo - Jet Propulsion Laboratory + View the NASA Portal
+ Center for Near-Earth Object Studies
JPL Home Earth Solar System Stars & Galaxies Technology
JPL Solar System Dynamics
BODIES ORBITS EPHEMERIDES TOOLS PHYSICAL DATA DISCOVERY FAQ SITE MAP
IMPORTANT: The SSD Announcement email list is now available. Major changes are coming in the near future, including possible hostname and/or URL changes. To be notified of such changes, subscribe to this email list.

Please visit this page for more details.


JPL Small-Body Database Browser
Search: [ help ]  
15939 Fessenden (1997 YP8)
Classification: Main-belt Asteroid          SPK-ID: 2015939
Ephemeris | Orbit Diagram | Orbital Elements | Mission Design | Physical Parameters | Discovery Circumstances | Close-Approach Data ]

[ show orbit diagram ]
Orbital Elements at Epoch 2459000.5 (2020-May-31.0) TDB
Reference: JPL 32 (heliocentric ecliptic J2000)
 Element Value Uncertainty (1-sigma)   Units 
e .1184485457024341 4.0492e-08  
a 3.179339566319814 1.9452e-08 au
q 2.802751418395025 1.2882e-07 au
i 13.12350787178765 4.1901e-06 deg
node 106.9205753160661 1.8642e-05 deg
peri 114.9377704998028 2.5358e-05 deg
M 250.2353063584953 1.8837e-05 deg
tp 2459631.840962321845
(2022-Feb-21.34096232)
0.00011089 TDB
period 2070.636184511001
5.67
1.9003e-05
5.203e-08
d
yr
n .1738596102458324 1.5956e-09 deg/d
Q 3.555927714244604 2.1756e-08 au
  Orbit Determination Parameters
   # obs. used (total)      1955  
   data-arc span      12078 days (33.07 yr)  
   first obs. used      1987-01-08  
   last obs. used      2020-02-02  
   planetary ephem.      DE431  
   SB-pert. ephem.      SB431-N16  
   condition code      0  
   norm. resid. RMS      .458  
   source      ORB  
   producer      Otto Matic  
   solution date      2020-Feb-22 21:31:08  

Additional Information
 Earth MOID = 1.82399 au 
 Jupiter MOID = 1.62524 au 
 T_jup = 3.148 
[ show covariance matrix ]

Ephemeris | Orbit Diagram | Orbital Elements | Mission Design | Physical Parameters | Discovery Circumstances | Close-Approach Data ]

Physical Parameter Table
Parameter Symbol Value Units Sigma Reference Notes
absolute magnitude H 12.4   n/a MPO452396  
diameter diameter 12.084 km 0.237 urn:nasa:pds:neowise_diameters_albedos::2.0[mainbelt] (http://adsabs.harvard.edu/abs/2011ApJ...741...68M)  
geometric albedo albedo 0.159   0.023 urn:nasa:pds:neowise_diameters_albedos::2.0[mainbelt] (http://adsabs.harvard.edu/abs/2011ApJ...741...68M)  

15939 Fessenden           Discovered 1997 Dec. 28 by Spacewatch at Kitt Peak.
Reginald Aubrey Fessenden (1866-1932) invented amplitude modulation as a means of transmitting sounds by radio. He was a professor at Purdue University and the University of Pittsburgh. The name was suggested by K. Ellis.
NOTE: some special characters may not display properly (any characters within {} are an attempt to place the proper accent above a character)
Reference: 20050523/MPCPages.arcLast Updated: 2005-07-21

[ show close-approach data ]
Alternate Designations
 1997 YP8 = 1987 AV 
Ephemeris | Orbit Diagram | Orbital Elements | Mission Design | Physical Parameters | Discovery Circumstances | Close-Approach Data ]
ABOUT SSD CREDITS/AWARDS PRIVACY/COPYRIGHT GLOSSARY LINKS
FirstGov 2020-Mar-31 13:45 UT
(server date/time)  
NASA Home Page
Site Manager:   Ryan S. Park
Webmaster  Alan B. Chamberlin